Weather History for Monett, MO

Change the Weather History Date:

Saturday, November 24, 2012

  Actual Average (KJLN) Record (KJLN)
Temperature  
Mean Temperature 36 °F 44 °F  
Max Temperature 50 °F 55 °F 76 °F (2006)
Min Temperature 23 °F 34 °F 10 °F (1950)
Degree Days  
Heating Degree Days 28 21  
Month to date heating degree days 372  
Since 1 July heating degree days 624  
Cooling Degree Days 0 0  
Month to date cooling degree days 5  
Year to date cooling degree days 1696  
Moisture  
Dew Point 20 °F    
Average Humidity 54    
Maximum Humidity 86    
Minimum Humidity 30    
Precipitation  
Precipitation 0.00 in 0.12 in 3.35 in (1987)
Month to date precipitation 3.06  
Year to date precipitation 43.01  
Sea Level Pressure  
Sea Level Pressure 30.21 in    
Wind  
Wind Speed 3 mph (South)    
Max Wind Speed 15 mph    
Max Gust Speed -    
Visibility 10 miles    
Events      
T = Trace of Precipitation, MM = Missing Value Source: NWS Daily Summary

Daily Weather History Graph

Daily Weather History Graph

Search for Another Location

Airport:

Trip Planner

Search our weather history database for the weather conditions in past years. The results will help you decide how hot, cold, wet, or windy it might be!

Date:

Astronomy

Nov. 24, 2012 Rise Set
Actual Time 7:04 AM CST 5:01 PM CST
Civil Twilight 6:35 AM CST 5:29 PM CST
Nautical Twilight 6:04 AM CST 6:01 PM CST
Astronomical Twilight 5:33 AM CST 6:32 PM CST
Moon 2:42 PM CST (11/24) 3:25 AM CST (11/24)
Length of Visible Light 10h 53m
Length of Day
9h 57m
Waxing Gibbous, 87% of the Moon is Illuminated
Nov 24
Waxing Gibbous
Nov 28
Full
Dec 6
Last Quarter
Dec 13
New
Dec 19
First Quarter

Hourly Weather History & Observations

Time (CST) Temp. Windchill Dew Point Humidity Pressure Visibility Wind Dir Wind Speed Gust Speed Precip Events Conditions
12:15 AM 28.4 °F 24.6 °F 19.4 °F 69% 30.40 in 10.0 mi West 3.5 mph - N/A   Clear
12:35 AM 28.4 °F - 19.4 °F 69% 30.40 in 10.0 mi Calm Calm - N/A   Clear
12:55 AM 28.4 °F - 19.4 °F 69% 30.39 in 10.0 mi Calm Calm - N/A   Clear
1:35 AM 28.4 °F - 17.6 °F 64% 30.38 in 10.0 mi Calm Calm - N/A   Clear
2:15 AM 26.6 °F - 17.6 °F 69% 30.36 in 10.0 mi Calm Calm - N/A   Clear
2:55 AM 24.8 °F - 19.4 °F 80% 30.38 in 10.0 mi Calm Calm - N/A   Clear
3:15 AM 24.8 °F - 19.4 °F 80% 30.37 in 10.0 mi Calm Calm - N/A   Clear
3:55 AM 26.6 °F - 17.6 °F 69% 30.36 in 10.0 mi Calm Calm - N/A   Clear
4:15 AM 26.6 °F - 17.6 °F 69% 30.36 in 10.0 mi Calm Calm - N/A   Clear
4:35 AM 26.6 °F - 17.6 °F 69% 30.36 in 10.0 mi Calm Calm - N/A   Clear
4:55 AM 23.0 °F - 17.6 °F 80% 30.35 in 10.0 mi Calm Calm - N/A   Clear
5:15 AM 23.0 °F - 17.6 °F 80% 30.36 in 10.0 mi Calm Calm - N/A   Clear
5:35 AM 24.8 °F - 17.6 °F 74% 30.35 in 10.0 mi Calm Calm - N/A   Clear
5:55 AM 26.6 °F - 15.8 °F 64% 30.35 in 10.0 mi Calm Calm - N/A   Clear
6:15 AM 24.8 °F - 15.8 °F 69% 30.35 in 10.0 mi Calm Calm - N/A   Clear
6:35 AM 24.8 °F - 15.8 °F 69% 30.34 in 10.0 mi Calm Calm - N/A   Clear
6:55 AM 23.0 °F - 17.6 °F 80% 30.34 in 10.0 mi Calm Calm - N/A   Clear
7:15 AM 23.0 °F - 17.6 °F 80% 30.34 in 10.0 mi Calm Calm - N/A   Clear
7:35 AM 23.0 °F - 19.4 °F 86% 30.34 in 10.0 mi Calm Calm - N/A   Clear
7:55 AM 26.6 °F 22.6 °F 19.4 °F 74% 30.34 in 10.0 mi ESE 3.5 mph - N/A   Clear
8:15 AM 26.6 °F - 19.4 °F 74% 30.34 in 10.0 mi Calm Calm - N/A   Clear
8:35 AM 28.4 °F - 21.2 °F 74% 30.33 in 10.0 mi Calm Calm - N/A   Clear
8:55 AM 30.2 °F - 21.2 °F 69% 30.34 in 10.0 mi Calm Calm - N/A   Clear
9:15 AM 32.0 °F 27.5 °F 19.4 °F 60% 30.33 in 10.0 mi ESE 4.6 mph - N/A   Clear
9:35 AM 32.0 °F 28.7 °F 17.6 °F 55% 30.33 in 10.0 mi South 3.5 mph - N/A   Clear
9:55 AM 33.8 °F 29.6 °F 15.8 °F 48% 30.33 in 10.0 mi SSW 4.6 mph - N/A   Clear
10:15 AM 35.6 °F 32.8 °F 19.4 °F 52% 30.32 in 10.0 mi South 3.5 mph - N/A   Clear
10:35 AM 35.6 °F 32.8 °F 15.8 °F 44% 30.32 in 10.0 mi SSW 3.5 mph - N/A   Clear
10:55 AM 37.4 °F - 17.6 °F 45% 30.31 in 10.0 mi Calm Calm - N/A   Clear
11:15 AM 39.2 °F 37.0 °F 17.6 °F 42% 30.29 in 10.0 mi South 3.5 mph - N/A   Clear
11:35 AM 41.0 °F 38.0 °F 17.6 °F 39% 30.27 in 10.0 mi SW 4.6 mph - N/A   Clear
11:55 AM 41.0 °F 38.0 °F 17.6 °F 39% 30.26 in 10.0 mi SSW 4.6 mph - N/A   Clear
12:15 PM 42.8 °F 40.1 °F 19.4 °F 39% 30.24 in 10.0 mi South 4.6 mph - N/A   Clear
12:35 PM 42.8 °F 40.1 °F 17.6 °F 36% 30.23 in 10.0 mi South 4.6 mph - N/A   Clear
12:55 PM 44.6 °F 43.1 °F 19.4 °F 37% 30.22 in 10.0 mi South 3.5 mph - N/A   Clear
1:15 PM 44.6 °F 41.4 °F 19.4 °F 37% 30.20 in 10.0 mi South 5.8 mph - N/A   Clear
1:55 PM 46.4 °F 44.3 °F 21.2 °F 37% 30.18 in 10.0 mi South 4.6 mph - N/A   Clear
2:15 PM 46.4 °F 41.9 °F 19.4 °F 34% 30.16 in 10.0 mi South 9.2 mph - N/A   Clear
2:35 PM 50.0 °F - 19.4 °F 30% 30.15 in 10.0 mi SSW 5.8 mph - N/A   Clear
2:55 PM 50.0 °F - 19.4 °F 30% 30.13 in 10.0 mi South 10.4 mph - N/A   Clear
3:15 PM 50.0 °F - 19.4 °F 30% 30.12 in 10.0 mi South 9.2 mph - N/A   Clear
3:35 PM 50.0 °F - 21.2 °F 32% 30.12 in 10.0 mi South 9.2 mph - N/A   Clear
3:55 PM 48.2 °F - 21.2 °F 34% 30.10 in 10.0 mi South 6.9 mph - N/A   Clear
4:15 PM 48.2 °F - 21.2 °F 34% 30.08 in 10.0 mi South 10.4 mph - N/A   Clear
4:55 PM 46.4 °F 42.4 °F 21.2 °F 37% 30.07 in 10.0 mi South 8.1 mph - N/A   Clear
5:15 PM 42.8 °F 38.6 °F 21.2 °F 42% 30.06 in 10.0 mi SSE 6.9 mph - N/A   Clear
5:35 PM 42.8 °F 39.3 °F 23.0 °F 46% 30.06 in 10.0 mi SSE 5.8 mph - N/A   Clear
5:55 PM 41.0 °F 36.4 °F 23.0 °F 49% 30.06 in 10.0 mi SSE 6.9 mph - N/A   Clear
6:15 PM 39.2 °F 33.6 °F 23.0 °F 52% 30.06 in 10.0 mi SSE 8.1 mph - N/A   Clear
6:35 PM 41.0 °F 35.2 °F 23.0 °F 49% 30.06 in 10.0 mi SSE 9.2 mph - N/A   Clear
6:55 PM 41.0 °F 34.7 °F 21.2 °F 45% 30.06 in 10.0 mi SSE 10.4 mph - N/A   Clear
7:15 PM 41.0 °F 35.2 °F 21.2 °F 45% 30.05 in 10.0 mi SSE 9.2 mph - N/A   Clear
7:35 PM 41.0 °F 34.7 °F 21.2 °F 45% 30.05 in 10.0 mi SSE 10.4 mph - N/A   Clear
7:55 PM 41.0 °F 35.8 °F 21.2 °F 45% 30.04 in 10.0 mi SSE 8.1 mph - N/A   Clear
8:15 PM 41.0 °F 35.8 °F 21.2 °F 45% 30.04 in 10.0 mi SSE 8.1 mph - N/A   Clear
8:35 PM 37.4 °F 32.1 °F 21.2 °F 52% 30.03 in 10.0 mi South 6.9 mph - N/A   Clear
8:55 PM 37.4 °F 32.1 °F 21.2 °F 52% 30.03 in 10.0 mi South 6.9 mph - N/A   Clear
9:15 PM 37.4 °F 32.1 °F 21.2 °F 52% 30.03 in 10.0 mi South 6.9 mph - N/A   Clear
9:35 PM 39.2 °F 33.0 °F 19.4 °F 45% 30.02 in 10.0 mi South 9.2 mph - N/A   Clear
9:55 PM 41.0 °F 34.7 °F 21.2 °F 45% 30.02 in 10.0 mi South 10.4 mph - N/A   Clear
10:15 PM 41.0 °F 33.1 °F 21.2 °F 45% 30.01 in 10.0 mi South 15.0 mph - N/A   Clear
10:35 PM 41.0 °F 33.5 °F 21.2 °F 45% 30.01 in 10.0 mi South 13.8 mph - N/A   Clear
10:55 PM 39.2 °F 31.6 °F 21.2 °F 49% 30.01 in 10.0 mi South 12.7 mph - N/A   Clear
11:15 PM 39.2 °F 31.6 °F 21.2 °F 49% 30.01 in 10.0 mi SSW 12.7 mph - N/A   Clear
11:35 PM 39.2 °F 33.0 °F 21.2 °F 49% 30.01 in 10.0 mi SSW 9.2 mph - N/A   Clear
11:55 PM 37.4 °F 30.8 °F 23.0 °F 56% 30.00 in 10.0 mi SSW 9.2 mph - N/A   Clear